Location: Unspecified
(47.1121°N, 116.3927°W)
Time: 07:00:22
(UTC-07:00)

ISS - Pass Details

Date: 26 May 2019
Orbit: 408 x 418 km, 51.6° (Epoch: 25 June)

Event Time Altitude Azimuth Distance (km) Brightness Sun altitude
Rises 22:50:30 0° 293° (WNW) 2,360 0.9 -17.1°
Reaches altitude 10° 22:52:37 10° 298° (WNW) 1,497 -0.1 -17.3°
Maximum altitude 22:55:56 55° 17° (NNE) 510 -3.1 -17.5°
Enters shadow 22:57:33 26° 86° (E) 858 -2.4 -17.6°
